| time (UTC) | temp F | wind direction | speed MPH | gust MPH | rain 1hr in | rain 24hr in | rain mn in | humidity % | barometer mb |
| 20260505171027 | 50 | 0 | 0.0 | 0.0 | 0.00 | 0.58 | 0.01 | 76 | 1011.0 |
| 20260505170525 | 50 | 0 | 0.0 | 0.0 | 0.00 | 0.58 | 0.01 | 76 | 1010.9 |
| 20260505170038 | 49 | 0 | 0.0 | 0.0 | 0.00 | 0.58 | 0.01 | 75 | 1010.8 |
| 20260505165526 | 49 | 0 | 0.0 | 0.0 | 0.00 | 0.58 | 0.01 | 75 | 1010.8 |
| 20260505165027 | 49 | 0 | 0.0 | 0.0 | 0.00 | 0.58 | 0.01 | 75 | 1010.8 |
| 20260505164538 | 49 | 0 | 0.0 | 0.0 | 0.00 | 0.58 | 0.01 | 75 | 1011.1 |
| 20260505164022 | 49 | 0 | 0.0 | 0.0 | 0.00 | 0.58 | 0.01 | 75 | 1011.2 |
| 20260505163522 | 48 | 0 | 0.0 | 0.0 | 0.00 | 0.58 | 0.01 | 77 | 1011.3 |
| 20260505163041 | 48 | 0 | 0.0 | 0.0 | 0.00 | 0.58 | 0.01 | 77 | 1011.1 |
| 20260505162529 | 48 | 0 | 0.0 | 0.0 | 0.00 | 0.58 | 0.01 | 76 | 1010.8 |
| 20260505162026 | 48 | 0 | 0.0 | 0.0 | 0.00 | 0.58 | 0.01 | 76 | 1010.6 |
| 20260505161544 | 49 | 0 | 0.0 | 0.0 | 0.00 | 0.58 | 0.01 | 78 | 1010.6 |
| 20260505161023 | 49 | 0 | 0.0 | 0.0 | 0.00 | 0.58 | 0.01 | 79 | 1010.5 |
| 20260505160527 | 49 | 0 | 0.0 | 0.0 | 0.00 | 0.58 | 0.01 | 78 | 1010.5 |
| 20260505153035 | 48 | 0 | 0.0 | 3.0 | 0.00 | 0.58 | 0.01 | 80 | 1010.4 |
| 20260505152525 | 48 | 0 | 0.0 | 7.0 | 0.00 | 0.58 | 0.01 | 79 | 1010.4 |
| 20260505152025 | 48 | 0 | 0.0 | 7.0 | 0.00 | 0.58 | 0.01 | 79 | 1010.3 |
| 20260505151543 | 48 | 0 | 0.0 | 6.0 | 0.00 | 0.58 | 0.01 | 77 | 1010.2 |
| 20260505151026 | 48 | 0 | 0.0 | 3.0 | 0.00 | 0.58 | 0.01 | 79 | 1010.3 |
| 20260505150529 | 48 | 0 | 0.0 | 3.0 | 0.00 | 0.58 | 0.01 | 79 | 1010.0 |
| 20260505140526 | 46 | 0 | 0.0 | 0.0 | 0.00 | 0.58 | 0.01 | 83 | 1010.0 |
| 20260505125025 | 47 | 0 | 0.0 | 8.0 | 0.00 | 0.58 | 0.01 | 76 | 1010.0 |
| 20260505124550 | 47 | 0 | 0.0 | 8.0 | 0.00 | 0.58 | 0.01 | 77 | 1010.3 |
| 20260505124027 | 47 | 0 | 0.0 | 6.0 | 0.00 | 0.58 | 0.01 | 75 | 1010.2 |
| 20260505123524 | 47 | 287 | 0.0 | 6.0 | 0.00 | 0.58 | 0.01 | 75 | 1010.3 |
| 20260505123040 | 48 | 0 | 0.0 | 6.0 | 0.00 | 0.58 | 0.01 | 75 | 1010.6 |
| 20260505122526 | 48 | 0 | 0.0 | 6.0 | 0.00 | 0.58 | 0.01 | 75 | 1010.6 |
| 20260505122025 | 48 | 0 | 0.0 | 3.0 | 0.00 | 0.58 | 0.01 | 75 | 1010.4 |
| 20260505121542 | 48 | 0 | 0.0 | 3.0 | 0.00 | 0.58 | 0.01 | 76 | 1010.4 |
| 20260505121027 | 48 | 0 | 0.0 | 3.0 | 0.00 | 0.58 | 0.01 | 75 | 1010.1 |
| 20260505120528 | 48 | 0 | 0.0 | 1.0 | 0.00 | 0.58 | 0.01 | 75 | 1009.9 |
| 20260505120039 | 49 | 0 | 0.0 | 1.0 | 0.00 | 0.58 | 0.01 | 74 | 1009.7 |
| 20260505115525 | 49 | 0 | 0.0 | 0.0 | 0.00 | 0.58 | 0.01 | 73 | 1009.3 |
| 20260505115025 | 49 | 0 | 0.0 | 1.0 | 0.00 | 0.58 | 0.01 | 73 | 1009.1 |
| 20260505114538 | 49 | 0 | 0.0 | 1.0 | 0.00 | 0.58 | 0.01 | 73 | 1009.1 |
| 20260505114026 | 49 | 0 | 0.0 | 1.0 | 0.00 | 0.58 | 0.01 | 73 | 1009.0 |
| 20260505113528 | 49 | 0 | 0.0 | 1.0 | 0.00 | 0.58 | 0.01 | 72 | 1008.9 |
| 20260505113044 | 49 | 0 | 0.0 | 0.0 | 0.00 | 0.58 | 0.01 | 73 | 1008.6 |
| 20260505112525 | 49 | 0 | 0.0 | 0.0 | 0.00 | 0.58 | 0.01 | 73 | 1008.8 |
| 20260505112027 | 49 | 0 | 0.0 | 0.0 | 0.00 | 0.58 | 0.01 | 74 | 1008.6 |
| 20260505111540 | 49 | 0 | 0.0 | 0.0 | 0.00 | 0.58 | 0.01 | 74 | 1008.8 |
| 20260505111026 | 49 | 0 | 0.0 | 3.0 | 0.00 | 0.58 | 0.01 | 73 | 1008.7 |
| 20260505110525 | 49 | 0 | 0.0 | 3.0 | 0.00 | 0.58 | 0.01 | 73 | 1008.6 |
| 20260505102025 | 50 | 0 | 0.0 | 0.0 | 0.00 | 0.58 | 0.01 | 76 | 1008.2 |
| 20260505101543 | 50 | 0 | 0.0 | 2.0 | 0.00 | 0.58 | 0.01 | 75 | 1008.2 |
| 20260505101025 | 50 | 0 | 0.0 | 2.0 | 0.00 | 0.58 | 0.01 | 75 | 1008.2 |
| 20260505100525 | 50 | 0 | 0.0 | 2.0 | 0.00 | 0.58 | 0.01 | 75 | 1007.8 |
| 20260505100042 | 50 | 0 | 0.0 | 0.0 | 0.00 | 0.58 | 0.01 | 76 | 1007.5 |
| 20260505095525 | 51 | 0 | 0.0 | 0.0 | 0.00 | 0.58 | 0.01 | 78 | 1007.5 |
| 20260505095024 | 51 | 0 | 0.0 | 0.0 | 0.00 | 0.58 | 0.01 | 77 | 1007.4 |
| 20260505094541 | 51 | 0 | 0.0 | 0.0 | 0.00 | 0.58 | 0.01 | 74 | 1007.1 |
| 20260505094025 | 51 | 0 | 0.0 | 0.0 | 0.00 | 0.58 | 0.01 | 73 | 1007.5 |
| 20260505093526 | 51 | 0 | 0.0 | 0.0 | 0.00 | 0.58 | 0.01 | 71 | 1007.6 |
| 20260505093040 | 51 | 0 | 0.0 | 0.0 | 0.00 | 0.58 | 0.01 | 71 | 1007.7 |
| 20260505092528 | 51 | 0 | 0.0 | 0.0 | 0.00 | 0.58 | 0.01 | 73 | 1007.8 |
| 20260505092025 | 52 | 0 | 0.0 | 0.0 | 0.00 | 0.58 | 0.01 | 76 | 1008.1 |
| 20260505091539 | 52 | 0 | 0.0 | 0.0 | 0.00 | 0.58 | 0.01 | 75 | 1007.8 |
| 20260505091025 | 52 | 0 | 0.0 | 0.0 | 0.00 | 0.58 | 0.01 | 76 | 1007.9 |
| 20260505090525 | 52 | 0 | 0.0 | 0.0 | 0.00 | 0.58 | 0.01 | 77 | 1008.3 |
| 20260505090046 | 52 | 0 | 0.0 | 0.0 | 0.00 | 0.58 | 0.01 | 77 | 1008.0 |
| 20260505085525 | 52 | 0 | 0.0 | 0.0 | 0.00 | 0.58 | 0.01 | 77 | 1007.9 |
| 20260505085025 | 52 | 0 | 0.0 | 0.0 | 0.00 | 0.58 | 0.01 | 76 | 1007.8 |
| 20260505084551 | 52 | 0 | 0.0 | 0.0 | 0.00 | 0.58 | 0.01 | 75 | 1007.7 |
| 20260505084025 | 52 | 0 | 0.0 | 1.0 | 0.00 | 0.58 | 0.01 | 76 | 1007.6 |
| 20260505083526 | 52 | 0 | 0.0 | 1.0 | 0.00 | 0.58 | 0.01 | 78 | 1007.7 |
| 20260505083054 | 52 | 0 | 0.0 | 1.0 | 0.01 | 0.58 | 0.01 | 79 | 1007.8 |
| 20260505082525 | 52 | 0 | 0.0 | 0.0 | 0.01 | 0.58 | 0.01 | 81 | 1007.4 |
| 20260505082025 | 52 | 0 | 0.0 | 0.0 | 0.01 | 0.58 | 0.01 | 79 | 1007.1 |
| 20260505081544 | 52 | 0 | 0.0 | 0.0 | 0.01 | 0.58 | 0.01 | 80 | 1006.9 |
| 20260505081028 | 53 | 0 | 0.0 | 0.0 | 0.01 | 0.58 | 0.01 | 81 | 1006.8 |
| 20260505080526 | 53 | 0 | 0.0 | 0.0 | 0.01 | 0.58 | 0.01 | 81 | 1006.4 |
| 20260505080046 | 53 | 0 | 0.0 | 0.0 | 0.01 | 0.58 | 0.01 | 80 | 1006.0 |
| 20260505075524 | 53 | 0 | 0.0 | 0.0 | 0.01 | 0.58 | 0.01 | 80 | 1006.1 |
| 20260505075025 | 53 | 0 | 0.0 | 0.0 | 0.01 | 0.58 | 0.01 | 79 | 1005.9 |
| 20260505074535 | 53 | 0 | 0.0 | 0.0 | 0.01 | 0.58 | 0.01 | 78 | 1005.7 |
| 20260505074025 | 53 | 0 | 0.0 | 0.0 | 0.01 | 0.58 | 0.01 | 77 | 1005.6 |
| 20260505073525 | 53 | 0 | 0.0 | 0.0 | 0.01 | 0.58 | 0.01 | 74 | 1005.6 |
| 20260505073036 | 53 | 0 | 0.0 | 0.0 | 0.00 | 0.58 | 0.00 | 75 | 1005.7 |
| 20260505072525 | 53 | 0 | 0.0 | 0.0 | 0.00 | 0.58 | 0.00 | 76 | 1005.7 |
| 20260505072025 | 53 | 0 | 0.0 | 0.0 | 0.00 | 0.58 | 0.00 | 78 | 1005.8 |
| 20260505071547 | 53 | 0 | 0.0 | 0.0 | 0.00 | 0.58 | 0.00 | 80 | 1005.7 |
| 20260505071027 | 53 | 0 | 0.0 | 0.0 | 0.00 | 0.58 | 0.00 | 83 | 1005.7 |
| 20260505070525 | 53 | 0 | 0.0 | 0.0 | 0.00 | 0.58 | 0.00 | 83 | 1005.4 |
| 20260505070040 | 53 | 0 | 0.0 | 0.0 | 0.00 | 0.58 | 0.00 | 86 | 1005.4 |
| 20260505065525 | 53 | 0 | 0.0 | 0.0 | 0.00 | 0.58 | 0.00 | 88 | 1005.5 |
| 20260505065025 | 54 | 0 | 0.0 | 0.0 | 0.00 | 0.58 | 0.00 | 89 | 1005.5 |
| 20260505064540 | 54 | 0 | 0.0 | 0.0 | 0.00 | 0.58 | 0.00 | 90 | 1005.3 |
| 20260505064025 | 54 | 0 | 0.0 | 0.0 | 0.00 | 0.58 | 0.00 | 90 | 1005.2 |
| 20260505063525 | 55 | 0 | 0.0 | 0.0 | 0.00 | 0.58 | 0.00 | 90 | 1005.1 |
| 20260505063040 | 55 | 0 | 0.0 | 0.0 | 0.00 | 0.58 | 0.00 | 90 | 1004.8 |
| 20260505062522 | 55 | 0 | 0.0 | 0.0 | 0.00 | 0.58 | 0.00 | 90 | 1004.6 |
| 20260505062026 | 55 | 0 | 0.0 | 0.0 | 0.00 | 0.58 | 0.00 | 90 | 1004.5 |
| 20260505061543 | 55 | 0 | 0.0 | 0.0 | 0.00 | 0.58 | 0.00 | 90 | 1004.6 |
| 20260505061027 | 56 | 0 | 0.0 | 0.0 | 0.00 | 0.58 | 0.00 | 90 | 1004.7 |
| 20260505060525 | 56 | 0 | 0.0 | 0.0 | 0.00 | 0.58 | 0.00 | 90 | 1004.5 |
| 20260505060045 | 56 | 0 | 0.0 | 0.0 | 0.00 | 0.58 | 0.00 | 90 | 1004.3 |
| 20260505055525 | 56 | 0 | 0.0 | 0.0 | 0.00 | 0.58 | 0.00 | 90 | 1004.3 |
| 20260505055026 | 56 | 0 | 0.0 | 0.0 | 0.00 | 0.58 | 0.00 | 90 | 1004.2 |
| 20260505054546 | 56 | 0 | 0.0 | 0.0 | 0.00 | 0.58 | 0.00 | 90 | 1004.3 |
| 20260505054026 | 56 | 0 | 0.0 | 0.0 | 0.00 | 0.58 | 0.00 | 90 | 1004.2 |
| 20260505053524 | 57 | 0 | 0.0 | 0.0 | 0.00 | 0.58 | 0.00 | 90 | 1004.3 |
| 20260505053039 | 57 | 0 | 0.0 | 0.0 | 0.00 | 0.58 | 0.00 | 90 | 1004.4 |
| 20260505052521 | 57 | 0 | 0.0 | 0.0 | 0.00 | 0.58 | 0.00 | 90 | 1004.2 |
| 20260505052025 | 57 | 0 | 0.0 | 0.0 | 0.00 | 0.58 | 0.00 | 90 | 1004.1 |
| 20260505051539 | 57 | 0 | 0.0 | 0.0 | 0.00 | 0.58 | 0.00 | 90 | 1003.9 |
| 20260505051026 | 57 | 0 | 0.0 | 0.0 | 0.00 | 0.58 | 0.00 | 90 | 1003.7 |
| 20260505050525 | 57 | 0 | 0.0 | 0.0 | 0.00 | 0.58 | 0.00 | 90 | 1003.5 |
| 20260505041539 | 57 | 0 | 0.0 | 0.0 | 0.05 | 0.58 | 0.58 | 91 | 1002.9 |
| 20260505041026 | 57 | 0 | 0.0 | 0.0 | 0.08 | 0.58 | 0.58 | 92 | 1002.7 |
| 20260505040525 | 57 | 0 | 0.0 | 0.0 | 0.09 | 0.58 | 0.58 | 91 | 1002.5 |
| 20260505040040 | 57 | 0 | 0.0 | 0.0 | 0.13 | 0.58 | 0.58 | 91 | 1002.6 |
| 20260505035529 | 56 | 0 | 0.0 | 0.0 | 0.17 | 0.58 | 0.58 | 91 | 1002.4 |
| 20260505035025 | 56 | 0 | 0.0 | 0.0 | 0.18 | 0.58 | 0.58 | 91 | 1002.7 |
| 20260505034542 | 56 | 0 | 0.0 | 0.0 | 0.18 | 0.58 | 0.58 | 91 | 1002.7 |
| 20260505034025 | 56 | 0 | 0.0 | 0.0 | 0.24 | 0.58 | 0.58 | 91 | 1002.6 |
| 20260505033525 | 56 | 0 | 0.0 | 0.0 | 0.30 | 0.58 | 0.58 | 91 | 1002.5 |
| 20260505033043 | 56 | 0 | 0.0 | 0.0 | 0.37 | 0.58 | 0.58 | 91 | 1002.7 |
| 20260505032524 | 56 | 0 | 0.0 | 0.0 | 0.48 | 0.58 | 0.58 | 90 | 1003.9 |
| 20260505032025 | 56 | 0 | 0.0 | 0.0 | 0.54 | 0.55 | 0.55 | 90 | 1004.3 |
| 20260505031552 | 56 | 0 | 0.0 | 0.0 | 0.52 | 0.52 | 0.52 | 90 | 1004.3 |
| 20260505031026 | 56 | 0 | 0.0 | 0.0 | 0.50 | 0.50 | 0.50 | 90 | 1004.3 |
| 20260505030525 | 56 | 0 | 0.0 | 0.0 | 0.49 | 0.49 | 0.49 | 89 | 1004.0 |
| 20260505030044 | 56 | 0 | 0.0 | 0.0 | 0.45 | 0.45 | 0.45 | 88 | 1004.5 |
| 20260505025522 | 57 | 0 | 0.0 | 0.0 | 0.41 | 0.41 | 0.41 | 88 | 1004.4 |
| 20260505025024 | 57 | 0 | 0.0 | 0.0 | 0.40 | 0.40 | 0.40 | 87 | 1004.2 |
| 20260505024548 | 57 | 0 | 0.0 | 0.0 | 0.39 | 0.39 | 0.39 | 86 | 1004.5 |
| 20260505024027 | 57 | 0 | 0.0 | 1.0 | 0.33 | 0.33 | 0.33 | 85 | 1004.6 |
| 20260505023525 | 58 | 0 | 0.0 | 1.0 | 0.28 | 0.28 | 0.28 | 83 | 1004.1 |
| 20260505023041 | 59 | 0 | 0.0 | 3.0 | 0.19 | 0.19 | 0.19 | 79 | 1004.6 |
| 20260505022525 | 61 | 0 | 0.0 | 6.0 | 0.09 | 0.09 | 0.09 | 73 | 1004.5 |
| 20260505022025 | 64 | 0 | 0.0 | 9.0 | 0.00 | 0.00 | 0.00 | 65 | 1004.4 |
| 20260505021540 | 67 | 287 | 1.0 | 9.0 | 0.00 | 0.00 | 0.00 | 59 | 1004.1 |
| 20260505021027 | 69 | 287 | 3.0 | 11.0 | 0.00 | 0.00 | 0.00 | 54 | 1003.9 |
| 20260505020525 | 70 | 287 | 4.0 | 11.0 | 0.00 | 0.00 | 0.00 | 60 | 1001.6 |
| 20260505020041 | 70 | 287 | 3.0 | 10.0 | 0.00 | 0.00 | 0.00 | 60 | 1001.4 |
| 20260505015525 | 70 | 0 | 5.0 | 10.0 | 0.00 | 0.00 | 0.00 | 61 | 1001.3 |
| 20260505015025 | 70 | 287 | 4.0 | 8.0 | 0.00 | 0.00 | 0.00 | 61 | 1001.4 |
| 20260505014559 | 70 | 287 | 2.0 | 10.0 | 0.00 | 0.00 | 0.00 | 61 | 1001.5 |
| 20260505014025 | 70 | 287 | 2.0 | 10.0 | 0.00 | 0.00 | 0.00 | 61 | 1001.5 |
| 20260505013521 | 70 | 0 | 3.0 | 9.0 | 0.00 | 0.00 | 0.00 | 61 | 1001.5 |
| 20260505013036 | 70 | 287 | 3.0 | 8.0 | 0.00 | 0.00 | 0.00 | 61 | 1001.2 |
| 20260505012526 | 70 | 287 | 4.0 | 9.0 | 0.00 | 0.00 | 0.00 | 61 | 1001.2 |
| 20260505012026 | 70 | 287 | 2.0 | 9.0 | 0.00 | 0.00 | 0.00 | 61 | 1001.1 |
| 20260505011550 | 70 | 287 | 1.0 | 9.0 | 0.00 | 0.00 | 0.00 | 61 | 1001.0 |
| 20260505011025 | 70 | 0 | 3.0 | 9.0 | 0.00 | 0.00 | 0.00 | 60 | 1000.8 |
| 20260505010525 | 70 | 287 | 4.0 | 10.0 | 0.00 | 0.00 | 0.00 | 60 | 1000.8 |
| 20260505010040 | 70 | 287 | 3.0 | 10.0 | 0.00 | 0.00 | 0.00 | 60 | 1000.8 |
| 20260505005525 | 71 | 287 | 5.0 | 10.0 | 0.00 | 0.00 | 0.00 | 60 | 1000.8 |
| 20260505005027 | 71 | 287 | 3.0 | 10.0 | 0.00 | 0.00 | 0.00 | 60 | 1000.7 |
| 20260505004540 | 71 | 287 | 4.0 | 10.0 | 0.00 | 0.00 | 0.00 | 60 | 1000.6 |
| 20260505004026 | 71 | 287 | 1.0 | 9.0 | 0.00 | 0.00 | 0.00 | 59 | 1000.5 |
| 20260505003530 | 71 | 287 | 2.0 | 9.0 | 0.00 | 0.00 | 0.00 | 58 | 1000.6 |
| 20260505003039 | 71 | 287 | 4.0 | 12.0 | 0.00 | 0.00 | 0.00 | 58 | 1000.5 |
| 20260505002526 | 71 | 287 | 5.0 | 12.0 | 0.00 | 0.00 | 0.00 | 57 | 1000.6 |
| 20260505002026 | 72 | 287 | 5.0 | 9.0 | 0.00 | 0.00 | 0.00 | 57 | 1000.7 |
| 20260505001543 | 72 | 287 | 3.0 | 12.0 | 0.00 | 0.00 | 0.00 | 57 | 1000.8 |
| 20260505001026 | 72 | 287 | 3.0 | 13.0 | 0.00 | 0.00 | 0.00 | 56 | 1000.8 |
| 20260505000526 | 72 | 287 | 5.0 | 13.0 | 0.00 | 0.00 | 0.00 | 55 | 1000.7 |
| 20260505000052 | 73 | 287 | 5.0 | 11.0 | 0.00 | 0.00 | 0.00 | 55 | 1000.5 |
| 20260504235528 | 73 | 287 | 6.0 | 11.0 | 0.00 | 0.00 | 0.00 | 55 | 1000.5 |
| 20260504235027 | 73 | 287 | 6.0 | 13.0 | 0.00 | 0.00 | 0.00 | 54 | 1000.5 |
| 20260504234542 | 74 | 287 | 7.0 | 15.0 | 0.00 | 0.00 | 0.00 | 53 | 1000.4 |
| 20260504234027 | 74 | 287 | 8.0 | 15.0 | 0.00 | 0.00 | 0.00 | 53 | 1000.4 |
| 20260504233527 | 75 | 287 | 6.0 | 13.0 | 0.00 | 0.00 | 0.00 | 53 | 1000.4 |
| 20260504233041 | 75 | 287 | 7.0 | 17.0 | 0.00 | 0.00 | 0.00 | 52 | 1000.5 |
| 20260504232530 | 75 | 287 | 8.0 | 17.0 | 0.00 | 0.00 | 0.00 | 51 | 1000.5 |
| 20260504232026 | 75 | 287 | 8.0 | 15.0 | 0.00 | 0.00 | 0.00 | 51 | 1000.5 |
| 20260504231541 | 75 | 287 | 9.0 | 15.0 | 0.00 | 0.00 | 0.00 | 50 | 1000.5 |
| 20260504231026 | 76 | 287 | 7.0 | 15.0 | 0.00 | 0.00 | 0.00 | 50 | 1000.5 |
| 20260504230526 | 76 | 287 | 7.0 | 16.0 | 0.00 | 0.00 | 0.00 | 50 | 1000.5 |
| 20260504230045 | 76 | 287 | 8.0 | 16.0 | 0.00 | 0.00 | 0.00 | 49 | 1000.7 |
| 20260504225527 | 76 | 287 | 9.0 | 16.0 | 0.00 | 0.00 | 0.00 | 49 | 1000.7 |
| 20260504225026 | 76 | 287 | 6.0 | 13.0 | 0.00 | 0.00 | 0.00 | 49 | 1000.9 |
| 20260504224545 | 76 | 287 | 7.0 | 15.0 | 0.00 | 0.00 | 0.00 | 49 | 1001.0 |
| 20260504224026 | 76 | 287 | 8.0 | 15.0 | 0.00 | 0.00 | 0.00 | 49 | 1001.0 |
| 20260504223526 | 76 | 287 | 9.0 | 15.0 | 0.00 | 0.00 | 0.00 | 48 | 1001.0 |
| 20260504223041 | 76 | 287 | 8.0 | 15.0 | 0.00 | 0.00 | 0.00 | 48 | 1001.2 |
| 20260504222526 | 76 | 287 | 8.0 | 15.0 | 0.00 | 0.00 | 0.00 | 47 | 1001.2 |
| 20260504222030 | 77 | 287 | 8.0 | 17.0 | 0.00 | 0.00 | 0.00 | 47 | 1001.2 |
| 20260504221540 | 77 | 287 | 9.0 | 17.0 | 0.00 | 0.00 | 0.00 | 47 | 1001.4 |
| 20260504221027 | 77 | 287 | 9.0 | 16.0 | 0.00 | 0.00 | 0.00 | 47 | 1001.4 |
| 20260504220527 | 77 | 287 | 8.0 | 18.0 | 0.00 | 0.00 | 0.00 | 46 | 1001.5 |
| 20260504220040 | 77 | 287 | 8.0 | 18.0 | 0.00 | 0.00 | 0.00 | 46 | 1001.4 |
| 20260504215528 | 78 | 287 | 9.0 | 18.0 | 0.00 | 0.00 | 0.00 | 45 | 1001.4 |
| 20260504215027 | 78 | 287 | 10.0 | 18.0 | 0.00 | 0.00 | 0.00 | 45 | 1001.5 |
| 20260504214542 | 78 | 287 | 8.0 | 16.0 | 0.00 | 0.00 | 0.00 | 45 | 1001.6 |
| 20260504214028 | 78 | 287 | 11.0 | 16.0 | 0.00 | 0.00 | 0.00 | 45 | 1001.7 |
| 20260504213522 | 78 | 287 | 8.0 | 17.0 | 0.00 | 0.00 | 0.00 | 45 | 1001.8 |
| 20260504213035 | 78 | 287 | 11.0 | 17.0 | 0.00 | 0.00 | 0.00 | 45 | 1001.8 |
| 20260504212524 | 78 | 287 | 9.0 | 15.0 | 0.00 | 0.00 | 0.00 | 45 | 1001.8 |
| 20260504212028 | 78 | 287 | 9.0 | 14.0 | 0.00 | 0.00 | 0.00 | 45 | 1001.8 |
| 20260504211543 | 78 | 287 | 9.0 | 14.0 | 0.00 | 0.00 | 0.00 | 44 | 1001.9 |
| 20260504211024 | 78 | 287 | 9.0 | 17.0 | 0.00 | 0.00 | 0.00 | 45 | 1001.9 |
| 20260504210525 | 78 | 287 | 9.0 | 17.0 | 0.00 | 0.00 | 0.00 | 44 | 1001.8 |
| 20260504210055 | 78 | 287 | 9.0 | 17.0 | 0.00 | 0.00 | 0.00 | 44 | 1001.9 |
| 20260504205524 | 78 | 287 | 8.0 | 16.0 | 0.00 | 0.00 | 0.00 | 44 | 1002.0 |
| 20260504205024 | 78 | 287 | 8.0 | 15.0 | 0.00 | 0.00 | 0.00 | 44 | 1001.9 |
| 20260504204553 | 79 | 287 | 7.0 | 15.0 | 0.00 | 0.00 | 0.00 | 44 | 1001.9 |
| 20260504204025 | 79 | 287 | 9.0 | 17.0 | 0.00 | 0.00 | 0.00 | 43 | 1002.0 |
| 20260504203524 | 79 | 287 | 9.0 | 17.0 | 0.00 | 0.00 | 0.00 | 42 | 1002.0 |
| 20260504203038 | 79 | 287 | 8.0 | 15.0 | 0.00 | 0.00 | 0.00 | 44 | 1001.9 |
| 20260504202525 | 79 | 287 | 9.0 | 16.0 | 0.00 | 0.00 | 0.00 | 43 | 1001.9 |
| 20260504202024 | 79 | 287 | 8.0 | 16.0 | 0.00 | 0.00 | 0.00 | 43 | 1002.0 |
| 20260504201539 | 79 | 287 | 9.0 | 16.0 | 0.00 | 0.00 | 0.00 | 42 | 1002.1 |
| 20260504201024 | 79 | 287 | 9.0 | 15.0 | 0.00 | 0.00 | 0.00 | 43 | 1002.0 |
| 20260504200525 | 80 | 287 | 8.0 | 14.0 | 0.00 | 0.00 | 0.00 | 42 | 1002.3 |
| 20260504200043 | 80 | 287 | 8.0 | 16.0 | 0.00 | 0.00 | 0.00 | 43 | 1002.2 |
| 20260504195523 | 79 | 287 | 8.0 | 16.0 | 0.00 | 0.00 | 0.00 | 43 | 1002.2 |
| 20260504195022 | 80 | 287 | 7.0 | 15.0 | 0.00 | 0.00 | 0.00 | 43 | 1002.3 |
| 20260504194540 | 80 | 287 | 7.0 | 12.0 | 0.00 | 0.00 | 0.00 | 42 | 1002.3 |
| 20260504194024 | 80 | 287 | 6.0 | 12.0 | 0.00 | 0.00 | 0.00 | 42 | 1002.3 |
| 20260504193525 | 80 | 287 | 3.0 | 13.0 | 0.00 | 0.00 | 0.00 | 42 | 1002.4 |
| 20260504193040 | 80 | 287 | 7.0 | 13.0 | 0.00 | 0.00 | 0.00 | 42 | 1002.4 |
| 20260504192524 | 79 | 287 | 7.0 | 13.0 | 0.00 | 0.00 | 0.00 | 41 | 1002.5 |
| 20260504192024 | 79 | 287 | 5.0 | 14.0 | 0.00 | 0.00 | 0.00 | 43 | 1002.4 |
| 20260504191539 | 79 | 287 | 8.0 | 14.0 | 0.00 | 0.00 | 0.00 | 41 | 1002.6 |
| 20260504191027 | 79 | 287 | 8.0 | 14.0 | 0.00 | 0.00 | 0.00 | 41 | 1002.6 |
| 20260504190525 | 78 | 287 | 7.0 | 13.0 | 0.00 | 0.00 | 0.00 | 42 | 1002.7 |
| 20260504190038 | 78 | 287 | 4.0 | 11.0 | 0.00 | 0.00 | 0.00 | 43 | 1002.8 |
| 20260504185524 | 78 | 287 | 5.0 | 13.0 | 0.00 | 0.00 | 0.00 | 42 | 1002.9 |
| 20260504185028 | 77 | 287 | 2.0 | 13.0 | 0.00 | 0.00 | 0.00 | 43 | 1002.9 |
| 20260504184543 | 77 | 287 | 8.0 | 13.0 | 0.00 | 0.00 | 0.00 | 44 | 1003.0 |
| 20260504184024 | 76 | 287 | 6.0 | 12.0 | 0.00 | 0.00 | 0.00 | 45 | 1003.1 |
| 20260504183526 | 76 | 287 | 5.0 | 12.0 | 0.00 | 0.00 | 0.00 | 48 | 1003.0 |
| 20260504183040 | 76 | 287 | 6.0 | 13.0 | 0.00 | 0.00 | 0.00 | 49 | 1003.1 |
| 20260504182521 | 75 | 287 | 7.0 | 13.0 | 0.00 | 0.00 | 0.00 | 48 | 1003.0 |
| 20260504182027 | 75 | 287 | 5.0 | 12.0 | 0.00 | 0.00 | 0.00 | 51 | 1003.0 |
| 20260504181540 | 74 | 287 | 5.0 | 13.0 | 0.00 | 0.00 | 0.00 | 52 | 1003.1 |
| 20260504181028 | 74 | 287 | 6.0 | 16.0 | 0.00 | 0.00 | 0.00 | 50 | 1003.2 |
| 20260504180527 | 74 | 287 | 9.0 | 16.0 | 0.00 | 0.00 | 0.00 | 48 | 1003.2 |
| 20260504180039 | 76 | 287 | 8.0 | 14.0 | 0.00 | 0.00 | 0.00 | 47 | 1003.3 |
| 20260504175526 | 76 | 287 | 7.0 | 16.0 | 0.00 | 0.00 | 0.00 | 47 | 1003.3 |
| 20260504175026 | 76 | 287 | 9.0 | 16.0 | 0.00 | 0.00 | 0.00 | 47 | 1003.2 |
| 20260504174538 | 76 | 287 | 8.0 | 15.0 | 0.00 | 0.00 | 0.00 | 46 | 1003.1 |
| 20260504174027 | 76 | 287 | 6.0 | 15.0 | 0.00 | 0.00 | 0.00 | 46 | 1003.3 |
| 20260504173525 | 76 | 287 | 8.0 | 15.0 | 0.00 | 0.00 | 0.00 | 46 | 1003.3 |
| 20260504173041 | 76 | 287 | 6.0 | 14.0 | 0.00 | 0.00 | 0.00 | 45 | 1003.6 |
| 20260504172526 | 76 | 287 | 8.0 | 14.0 | 0.00 | 0.00 | 0.00 | 44 | 1003.5 |
| 20260504172027 | 76 | 287 | 6.0 | 17.0 | 0.00 | 0.00 | 0.00 | 44 | 1003.5 |
| 20260504171539 | 76 | 287 | 10.0 | 17.0 | 0.00 | 0.00 | 0.00 | 44 | 1003.5 |